219  
ASUS41 KPHI 291312  
RWRPHI  
 
REGIONAL WEATHER ROUNDUP  
NATIONAL WEATHER SERVICE MOUNT HOLLY NJ  
900 AM EDT FRI APR 29 2016  
 
NOTE: "FAIR" INDICATES FEW OR NO CLOUDS BELOW 12,000 FEET WITH NO  
SIGNIFICANT WEATHER AND/OR S TO VISIBILITY
.  
 
* = STATION DOES NOT REPORT PRECIPITATION (E.G. RAIN, SNOW, ETC.)  
OR FOG.
 
 
NJZ015>026-291400-  
SOUTHERN NEW JERSEY  
 
CITY SKY/WX TMP DP RH WIND PRES REMARKS
 
POMONA CLOUDY 50 44 80 E8 30.07R  
WILDWOOD* CLOUDY N/A N/A N/A NE12 30.05S  
MILLVILLE CLOUDY 48 44 86 NE7 30.07R  
WRIGHTSTOWN CLOUDY 48 44 85 NE10 30.06R  
MOUNT HOLLY CLOUDY 49 44 83 NE6 30.08S  
TRENTON CLOUDY 49 41 74 E7 30.08S  
 

 
NJZ001>014-291400-  
NORTHERN NEW JERSEY  
 
CITY SKY/WX TMP DP RH WIND PRES REMARKS
 
SUSSEX CLOUDY 49 37 63 E7 30.11R  
ANDOVER* N/A 49 35 58 VRB5 30.09S  
MORRISTOWN CLOUDY 50 34 53 E9 30.11S  
NEWARK CLOUDY 52 32 46 E7 30.10S  
TETERBORO CLOUDY 50 38 63 E7 30.10S  
CALDWELL CLOUDY 50 37 61 E9 30.11S  
SOMERVILLE PTSUNNY 53 36 52 E8 30.08S  
ALLAIRE* CLOUDY 48 41 76 E13 30.10R  
TOMS RIVER* CLOUDY 48 39 71 E10 30.09R  
 

 
PAZ043-044-047-054-055-060>062-066>071-291400-  
EASTERN PENNSYLVANIA  
 
CITY SKY/WX TMP DP RH WIND PRES REMARKS
 
PHILADELPHIA CLOUDY 50 40 68 E13G20 30.08R  
NORTH PHILA CLOUDY 50 43 77 E10 30.10R  
BLUE BELL* CLOUDY 46 43 87 E5 30.08R  
DOYLESTOWN CLOUDY 43 41 93 VRB3 30.08R  
QUAKERTOWN* PTSUNNY 46 41 81 E9 30.08S  
PERKASIE* CLOUDY 46 43 87 NE6 30.09R  
POTTSTOWN CLOUDY 46 43 89 NE5 30.09R  
LANCASTER CLOUDY 44 42 93 E7 30.08R FOG  
COATESVILLE CLOUDY 45 45 100 NE3 30.08R  
READING CLOUDY 47 38 71 E6 30.08R  
ALLENTOWN CLOUDY 50 39 66 E9 30.08S  
MOUNT POCONO CLOUDY 43 36 76 SE10 30.05S  
HAZLETON CLOUDY 45 34 65 SE9 30.06S  
LEHIGHTON CLOUDY 48 39 71 SE5 30.08F  
WILKES BARRE CLOUDY 50 36 58 SE7 30.04F  
 

 
DEZALL-MDZ008-012-015-019-020-291400-  
DELAWARE AND EASTERN MARYLAND  
 
CITY SKY/WX TMP DP RH WIND PRES REMARKS
 
WILMINGTON CLOUDY 48 42 80 NE10 30.08R  
DOVER CLOUDY 48 48 100 NE9 30.05S  
GEORGETOWN CLOUDY 50 49 96 E12 30.05S FOG  
EASTON CLOUDY N/A N/A N/A E5 30.09R FOG  
ABERDEEN DRIZZLE 46 45 93 NE7 30.07S FOG  
PATUXENT DRIZZLE 50 48 93 NE10 30.04R FOG  
OCEAN CITY CLOUDY 51 49 92 NE12G21 30.03S  
WALLOPS ISLAND CLOUDY 52 50 93 NE14 30.02S  
CAMBRIDGE CLOUDY 48 48 100 NE5 30.03S  
SALISBURY CLOUDY 51 50 96 NE10 30.02S FOG  
 

 
PAZ001-021-NYZ056-072-MDZ011-DCZ001-291400-  
OTHER NEARBY LOCATIONS  
 
CITY SKY/WX TMP DP RH WIND PRES REMARKS
 
HARRISBURG LGT RAIN 45 42 89 E7 30.07S FOG  
STATE COLLEGE CLOUDY 43 43 100 CALM 30.03S FOG  
WILLIAMSPORT CLOUDY 48 37 65 E12G18 30.05S  
BINGHAMTON LGT RAIN 44 38 79 E6 30.04S  
NEW YORK CITY CLOUDY 50 32 50 E5 30.13S  
BALTIMORE DRIZZLE 47 46 97 VRB5 30.06R FOG  
WASHINGTON DC CLOUDY 49 46 90 NE7 30.06R FOG  
 

 
 
 
CLICK HERE TO GO TO PREVIOUS BULLETINS.

The Nexlab PA Page
The Nexlab NJ Page
The Nexlab DE Page
The Nexlab MD Page Main Text Page